Location: Cahas Mountain Overlook
(37.0833°N, 80.1000°W)
Time: 17:50:24
(UTC-05:00)

Vanguard 3 - Pass Details

Date: 13 December 2023
Orbit: 508 x 3239 km, 33.4° (Epoch: 23 February)

Event Time Altitude Azimuth Distance (km) Brightness Sun altitude
Rises 20:49:11 0° 257° (WSW) 7,132 12.7 -44.0°
Reaches altitude 10° 20:54:16 10° 256° (WSW) 5,955 12.1 -45.0°
Enters shadow 21:09:33 66° 228° (SW) 2,547 9.4 -48.1°
